Regional Weather Roundup
Issued by NWS

Home | Current Version | Previous Version | Graphics & Text | Print | Product List | Glossary On
Versions: 1 2 3 4 5 6 7 8 9 10 11 12 13 14 15 16 17 18 19 20 21 22 23 24 25 26 27 28 29 30 31 32 33 34 35 36 37 38 39 40 41 42 43 44 45 46 47 48 49 50
000
ASUS43 KIND 221900
RWRIN

WEATHER ROUNDUP FOR INDIANA
NATIONAL WEATHER SERVICE INDIANAPOLIS IN
300 PM EDT TUE AUG 22 2017

NOTE: "FAIR" INDICATES FEW OR NO CLOUDS BELOW 12,000 FEET WITH NO
SIGNIFICANT WEATHER AND/OR OBSTRUCTIONS TO VISIBILITY.

* - STATION DOES NOT REPORT WEATHER SUCH AS PRECIPITATION OR FOG.

+ - STATION NOT QUALITY CONTROLLED BY THE NATIONAL WEATHER SERVICE.
    USE DATA WITH CAUTION...ESPECIALLY DEWPOINT AND RELATIVE
    HUMIDITY OBSERVATIONS.

INZ001>003-010>013-019-020-222000-
NORTHWEST INDIANA

CITY           SKY/WX    TMP DP  RH WIND       PRES   REMARKS
GARY /AIRPORT/ PTSUNNY   79  61  53 W8        29.91R
MICHIGAN CITY+ PTSUNNY   75  63  64 NW7G16    29.91S
MONTICELLO +   CLOUDY    75  68  79 W9        29.91S

$$

LMZ046-743>745-222000-
SOUTHERN LAKE MICHIGAN

STATION/POSITION TIME  TEMP    WIND        PRES    WAVE
                       AIR SEA DIR/SP/G            HT
                 (UTC) (F)     (DEG/KT/KT) (MB)    (FT)
BURNS HARBOR     1840   74     300/ 11/ 12 1012.9R
MICHIGAN CITY    1830   72     300/ 16/ 18   N/A
5NW MICH CITY    1850   73 74  320/ 12/ 16   N/A     4

$$

INZ004-005-014>016-021>024-222000-
NORTH CENTRAL INDIANA

CITY           SKY/WX    TMP DP  RH WIND       PRES   REMARKS
ELKHART        PTSUNNY   73  66  78 NW9       29.89R
GOSHEN         PTSUNNY   78  64  61 W20       29.87S
PERU/GRISSOM   PTSUNNY   77  70  78 W15       29.90S
SOUTH BEND     CLOUDY    73  68  84 NW14      29.90R

$$

INZ006>009-017-018-025>027-222000-
NORTHEAST INDIANA

CITY           SKY/WX    TMP DP  RH WIND       PRES   REMARKS
FORT WAYNE     CLOUDY    77  66  68 W13       29.89S

$$

INZ028-029-035-036-043>045-051>053-222000-
WEST CENTRAL INDIANA

CITY           SKY/WX    TMP DP  RH WIND       PRES   REMARKS
LAFAYETTE      CLOUDY    76  68  76 W10       29.92R
TERRE HAUTE    CLOUDY    79  69  71 W8        29.95F

$$

INZ030>032-037>040-046>048-054>057-064-065-222000-
CENTRAL INDIANA

CITY           SKY/WX    TMP DP  RH WIND       PRES   REMARKS
ANDERSON       PTSUNNY   77  68  73 MISG      29.93F
COLUMBUS       CLOUDY    75  68  78 W9        29.95S
GREENWOOD *+   CLOUDY   N/A N/A N/A W14       29.95S
INDIANAPOLIS   CLOUDY    78  69  73 W18       29.93F
-EAGLE CREEK   PTSUNNY   78  68  71 W9G18     29.93S
KOKOMO +       CLOUDY    76  69  79 W14       29.92S
MT COMFORT *+  CLOUDY    75  68  78 W10       29.94S
SHELBYVILLE    CLOUDY    79  67  66 W12G22    29.93F

$$

INZ033-034-041-042-049-050-058-059-222000-
EAST CENTRAL INDIANA

CITY           SKY/WX    TMP DP  RH WIND       PRES   REMARKS
MUNCIE         CLOUDY    78  67  68 W13G21    29.91S
RICHMOND +     CLOUDY    72  70  94 SW9       29.95S

$$

INZ060-061-067>069-081>083-085>088-222000-
SOUTHWEST INDIANA

CITY           SKY/WX    TMP DP  RH WIND       PRES   REMARKS
EVANSVILLE     TSTM      78  74  87 W6        29.95S FOG
HUNTINGBURG +  LGT RAIN  81  75  82 W12G18    29.94F

$$

INZ062-063-066-070>080-084-089>092-222000-
SOUTH CENTRAL AND SOUTHEAST INDIANA

CITY           SKY/WX    TMP DP  RH WIND       PRES   REMARKS
BLOOMINGTON    PTSUNNY   76  69  79 W8        29.96F
MADISON *+     CLOUDY    82  72  69 NW6       29.95F
SEYMOUR +      CLOUDY    77  68  73 NW10      29.95F

$$





USA.gov is the U.S. government's official web portal to all federal, state and local government web resources and services.